Aérodrome :
LOGIN :

S'inscrire | Disclaimer

   EN    FR    IT 

 










Légende :    VFR   VFR Marginal   IFR   IFR Intensif   IFR Très Intensif
Visi : 
Plafond : 
>= 8 km
>= 3000ft
5 à 8 km
1000 à 3000 ft
1500m à 5 km
500 à 1000 ft
800 à 1500m
200 à 500 ft
< 800m
< 200 ft
Symboles :   Orages  Brouillard  Fortes neiges  Fortes précipitations  Vent > 20 kt
SIGMETs :   Divers  Orages  Givrage  Turbulence  Onde Orograph.  Cendres Volcan.







- Altitude de l'aérodrome : 65 ft
- Code IATA : PMO


LICJ - Palermo Punta Raisi

DERNIER METAR :
  • 142050Z 11007KT CAVOK 17/12 Q1023

METARs EXPIRÉS :
  • 142020Z 09007KT CAVOK 17/12 Q1023
  • 141950Z 08008KT CAVOK 16/12 Q1023
  • 141920Z 08008KT CAVOK 16/12 Q1023
  • 141850Z 08008KT CAVOK 17/12 Q1024
  • 141820Z 08008KT CAVOK 17/12 Q1024

TAF TAF LICJ
Valide du 14 à 18h jusqu'au 15 à 18h UTC


141700Z 1418/1518 05010KT 9999 SCT030
BECMG 1418/1420 19008KT
BECMG 1510/1512 05010KT
Pas de NOTAMs connus pour ce terrain.



MET'MAP, la Météo Aéronautique d'un coup d'oeil ! - Copyright ORBIFLY Décembre 2007 - Disclaimer

ORBIFLY MET'MAP TEAM :

Programmation & Développement : Alexandra Zaïnal
Conception & Développement : Baudouin d'Aumeries
Co-Programmation & Développement : Marc-Olivier Méhu
Soutien technique & logistique : Manuel Goepfert

Contact : metmap@orbifly.com




SOURCES & CREDITS :

   NOAA